COSMOS 1275 DEB

Satellite information

Favourite Embed

Satellite Type and Status

DEBRISIN ORBIT

Key statistics

Satellite COSMOS 1275 DEB at a glance.

Uptime

16213

Days in orbit

Revolutions

≈ 13.8

Per day

Orbit

LEO

Low Earth Orbit

Inclination

83.0

Latest

Satellite identification and parameters

Extended collection of information and parameters for COSMOS 1275 DEB.

Object identification

Identified? True

Debris? True

Object name: COSMOS 1275 DEB

International designator: 1981-053MS

Object number (NORAD): 29295

Object ID (CCSDS): 29295

Country: COMMONWEALTH OF INDEPENDENT STATES (CIS)

Current information (Y/N): Y

RCS size: SMALL

Orbital parameters

Period: 104.72 minutes

Inclination: 82.9612 deg

SMA: 7359.473 km

Apoapsis: 1062.724 km

Periapsis: 899.952 km

RAAN: 330.3777 deg

Eccentricy: 0.01105869

Argument of periapsis: 237.4025 deg

Mean anomaly: 140.0334 deg

Mean motion: 13.75094975 rev/day

Mean motion (dot): 0.0000156 rev/day2

B* drag term: 0.0015480434 1/REarth

Two-line elements (TLE)

Creation date: Oct. 7, 2025, 5:38 p.m.

Reference frame: TEME

Reference center: EARTH

Epoch: Oct. 7, 2025, 10:06 a.m. UTC

TLE line 0: 0 COSMOS 1275 DEB

TLE line 1: 1 29295U 81053MS 25280.42095928 .00001560 00000-0 15480-2 0 9992

TLE line 2: 2 29295 82.9612 330.3777 0110587 237.4025 140.0334 13.75094975657319

Live tracking on map

Real-time ground track for satellite COSMOS 1275 DEB.

In-orbit conjunctions

A list of the most updated potential collisions computed for object COSMOS 1275 DEB.

Target Orbit TCA Probability of collision Miss distance Type
COSMOS 516 LEO 2025-09-06 21:36:23 0.000196904 400.0 (m) PAYLOAD

Associated space launch

Navigation satellite providing location information for the Tsiklon-B navigation system

COSMOS 1275 DEB was lifted into orbit during the mission ‘Kosmos-3M | Parus 27’, on board a Kosmos-3M space rocket.

The launch took place on June 4, 1981, 3:41 p.m. from 132/2.

For more information about the launch, click the button.

Launch to space Kosmos-3M | Parus 27
Kosmos-3M | Parus 27

Agency: N/A

Status: Launch Successful

Launch date: June 4, 1981, 3:41 p.m. UTC

Rocket: Kosmos-3M

Launch pad: 132/2

Location: Plesetsk Cosmodrome, Russian Federation

...

Latest news about this satellite

There are no fresh news available about this satellite. Check back as we update our databases every day.


Newsletter sign-up

Weekly statistics, charts and insights to help you stay on top of the space industry.